{"data":{"norad_id":65514,"epoch":"2026-09-20T21:13:33.357504Z","epoch_age_seconds":78792,"freshness":"FRESH","line1":"1 65514U 25198Y   26263.88441386  .00014667  00000+0  44433-3 0  9991","line2":"2 65514  53.1597  81.6115 0001656  82.4025 277.7165 15.34404011 58544","mean_motion":15.34404011,"eccentricity":0.0001656,"inclination_deg":53.1597,"raan_deg":81.6115,"arg_perigee_deg":82.4025,"mean_anomaly_deg":277.7165,"bstar":0.00044433,"rev_number":5854,"period_min":93.847512759141,"perigee_km":461.55847752622,"apogee_km":463.82415986537,"semimajor_km":6840.8283186958,"source":"CELESTRAK","updated_at":"2026-09-21T09:00:35.645931Z"}}